LPR6 EPKX-EPKX

Flight info

Callsign LPR6
Flight time 0h 17m
Altitude 2000
Route DCT
Aircraft EC45/L-S/C

Departure

Time 2026-04-11 20:07
Airport Kokotowie LPR HEMS Heliport (EPKX)

Arrival

Time 2026-04-11 20:24
Airport Kokotowie LPR HEMS Heliport (EPKX)
Time Latitude Longitude Altitude Speed Heading
2026-04-11 19:56 50.02238 20.07033 648 ft 0 kts 150°
2026-04-11 20:05 50.02234 20.07035 662 ft 2 kts 224°
2026-04-11 20:06 50.02239 20.06931 741 ft 30 kts 297°
2026-04-11 20:06 50.02343 20.06457 989 ft 66 kts 297°
2026-04-11 20:06 50.02508 20.05567 1074 ft 96 kts 286°
2026-04-11 20:06 50.02748 20.04523 1198 ft 106 kts 290°
2026-04-11 20:07 50.03050 20.03453 1346 ft 109 kts 293°
2026-04-11 20:07 50.03322 20.02335 1494 ft 111 kts 289°
2026-04-11 20:07 50.03582 20.01165 1546 ft 120 kts 287°
2026-04-11 20:07 50.03856 19.99902 1542 ft 125 kts 286°
2026-04-11 20:08 50.04084 19.98578 1546 ft 128 kts 282°
2026-04-11 20:08 50.04276 19.97224 1543 ft 129 kts 280°
2026-04-11 20:08 50.04454 19.95857 1538 ft 129 kts 279°
2026-04-11 20:08 50.04605 19.94473 1527 ft 130 kts 277°
2026-04-11 20:09 50.04751 19.93098 1550 ft 128 kts 280°
2026-04-11 20:09 50.04940 19.91752 1578 ft 127 kts 281°
2026-04-11 20:09 50.05140 19.90412 1601 ft 127 kts 282°
2026-04-11 20:09 50.05374 19.89083 1615 ft 128 kts 285°
2026-04-11 20:10 50.05660 19.87772 1625 ft 128 kts 287°
2026-04-11 20:11 50.06968 19.82602 1666 ft 129 kts 292°
2026-04-11 20:11 50.07338 19.81338 1602 ft 127 kts 292°
2026-04-11 20:11 50.07703 19.80120 1479 ft 125 kts 292°
2026-04-11 20:11 50.08048 19.78919 1191 ft 114 kts 281°
2026-04-11 20:12 50.08094 19.77804 1090 ft 95 kts 261°
2026-04-11 20:12 50.08002 19.76856 968 ft 84 kts 257°
2026-04-11 20:12 50.07974 19.76121 947 ft 52 kts 266°
2026-04-11 20:12 50.07967 19.75794 903 ft 40 kts 263°
2026-04-11 20:13 50.07990 19.75518 874 ft 11 kts 291°
2026-04-11 20:13 50.07984 19.75443 820 ft 13 kts 276°
2026-04-11 20:13 50.07985 19.75393 816 ft 0 kts 270°
2026-04-11 20:19 50.07986 19.75390 820 ft 2 kts 271°
2026-04-11 20:19 50.07974 19.75387 867 ft 2 kts 318°
2026-04-11 20:20 50.08008 19.75319 1013 ft 16 kts 288°
2026-04-11 20:20 50.08108 19.75259 1216 ft 33 kts 41°
2026-04-11 20:20 50.08248 19.75644 1558 ft 58 kts 79°
2026-04-11 20:20 50.08314 19.76456 1714 ft 93 kts 85°
2026-04-11 20:21 50.08347 19.77591 1708 ft 115 kts 86°
2026-04-11 20:21 50.08361 19.78898 1654 ft 125 kts 86°
2026-04-11 20:21 50.08372 19.80281 1607 ft 130 kts 86°
2026-04-11 20:21 50.08388 19.81699 1558 ft 132 kts 86°
2026-04-11 20:22 50.08412 19.83125 1502 ft 133 kts 85°
2026-04-11 20:22 50.08443 19.84563 1512 ft 130 kts 85°
2026-04-11 20:22 50.08478 19.85952 1545 ft 128 kts 85°
2026-04-11 20:22 50.08557 19.87320 1566 ft 127 kts 78°
2026-04-11 20:23 50.08731 19.88667 1583 ft 127 kts 78°
2026-04-11 20:23 50.08853 19.90018 1491 ft 125 kts 79°
2026-04-11 20:23 50.08961 19.91330 1404 ft 117 kts 78°
2026-04-11 20:23 50.09055 19.92326 1314 ft 73 kts 74°
2026-04-11 20:24 50.09097 19.92971 1133 ft 45 kts 81°
2026-04-11 20:24 50.09096 19.93309 982 ft 23 kts 90°
2026-04-11 20:24 50.09106 19.93491 894 ft 15 kts 104°
2026-04-11 20:24 50.09111 19.93675 809 ft 9 kts 107°
2026-04-11 20:25 50.09108 19.93668 803 ft 1 kts
2026-04-11 20:25 50.09110 19.93661 803 ft 0 kts 36°
2026-04-11 20:25 50.09112 19.93660 802 ft 0 kts 46°
2026-04-11 20:27 50.09113 19.93659 803 ft 1 kts 68°
2026-04-11 20:28 50.09112 19.93672 831 ft 7 kts 249°
2026-04-11 20:28 50.09092 19.93585 1008 ft 11 kts
2026-04-11 20:28 50.09123 19.93680 1160 ft 33 kts 141°
2026-04-11 20:28 50.09046 19.93979 1536 ft 30 kts 130°
2026-04-11 20:29 50.08751 19.94421 1670 ft 89 kts 138°
2026-04-11 20:29 50.08200 19.95178 1587 ft 113 kts 135°
2026-04-11 20:29 50.07623 19.96004 1614 ft 108 kts 134°
2026-04-11 20:29 50.07100 19.96749 1770 ft 101 kts 136°
2026-04-11 20:30 50.06558 19.97455 1846 ft 102 kts 136°
2026-04-11 20:30 50.06046 19.98213 1921 ft 101 kts 128°
2026-04-11 20:30 50.05563 19.99012 1989 ft 102 kts 131°
2026-04-11 20:30 50.05104 19.99852 2067 ft 101 kts 125°
2026-04-11 20:31 50.04654 20.00709 2093 ft 104 kts 118°
2026-04-11 20:31 50.04341 20.01747 2086 ft 107 kts 114°
2026-04-11 20:31 50.03950 20.02751 2078 ft 109 kts 118°
2026-04-11 20:31 50.03549 20.03739 1969 ft 106 kts 116°
2026-04-11 20:32 50.03192 20.04708 1630 ft 102 kts 115°
2026-04-11 20:32 50.02822 20.05642 1343 ft 100 kts 117°
2026-04-11 20:32 50.02533 20.06366 1232 ft 42 kts 112°
2026-04-11 20:32 50.02423 20.06610 891 ft 35 kts 120°
2026-04-11 20:33 50.02315 20.06870 734 ft 12 kts 129°
2026-04-11 20:33 50.02264 20.06964 665 ft 6 kts 160°
2026-04-11 20:33 50.02244 20.07007 654 ft 7 kts 119°
2026-04-11 20:33 50.02237 20.07030 651 ft 0 kts 92°